Accueil
METAR-TAF:

METAR-TAF

Aéroports :

Waterville Robert LaFleur Airport

Waterville, Maine, États-Unis

latitude: 44-32N, longitude: 069-41W, altitude: 101 m

Observation

Le bulletin a été fait il y a 1 heure et 2 minutes, à 06:56 UTC
Vent 6 kt de sud-ouest
Température 2°C
Humidité 80%
Pression 1012 hPa
Visibilité: 16.1 km
Ciel clair

METAR: KWVL 170656Z AUTO 22006KT 10SM CLR 02/M01 A2987 RMK AO2 SLP144 T00171006 FZRANO $

Heure: 03:58 (07:58 UTC)


TAF: absent

Observations et prévisions météorologiques de plus de 4000 aéroports (messages METAR et TAF).

Les stations disponibles sont représentées par des disques jaunes et rouges sur la carte.

Passer la souris dessus pour voir le nom de la station.

Cliquer dessus pour voir les observations et prévisions météorologiques.

Pour changer de carte: cliquez sur les boutons verts avec une croix noire pour zoomer, sur le bouton vert avec un tiret pour effectuer un zoom arrière, ou sur les flèches vertes pour les cartes adjacentes.


METAR-TAF: